Location: Austin
(30.3000°N, 97.7500°W)
Time: 11:37:47
(UTC-05:00)

Cosmos 990 Rocket - Pass Details

Date: 05 September 2024
Orbit: 743 x 766 km, 74.0° (Epoch: 10 September)

Event Time Altitude Azimuth Distance (km) Brightness Sun altitude
Rises 20:17:34 0° 351° (N) 3,227 7.5 -7.1°
Reaches altitude 10° 20:20:03 10° 358° (N) 2,296 6.7 -7.6°
Maximum altitude 20:25:02 45° 71° (ENE) 1,021 4.3 -8.7°
Drops below altitude 10° 20:29:57 10° 144° (SE) 2,270 6.0 -9.7°
Enters shadow 20:31:50 - 149° (SSE) 2,974 6.6 -10.1°
